Voltar ao catálogo

SCOUT A DEB

AtivoPO
NORAD 3122·DEBRIS·🇺🇸 United States

Lançado Sep 25, 1967 de Vandenberg Space Force Base

Loading…

Próximas Passagens (próximas 24 horas)

TLE

AtualizadoSource: Space-Track

Época: Sep 14, 2026, 10:53 UTC

1 03122U 67092D   26257.45394017  .00000106  00000-0  19917-3 0  9994
2 03122  89.0509  80.0469 0185772 339.2491  46.4034 13.26030389594856

Acompanhe SCOUT A DEB em tempo real com AllMySat

Download on the App Store